Time,TemperatureF,DewpointF,PressureIn,WindDirection,WindDirectionDegrees,WindSpeedMPH,WindSpeedGustMPH,Humidity,HourlyPrecipIn,Conditions,Clouds,dailyrainin,SoftwareType,DateUTC
2013-02-08 00:02:00,34.6,32.0,30.11,ESE,104,7.0,7.0,90,0.00,,,0.06,Wunderground v.1.13,2013-02-08 08:02:00,
2013-02-08 00:12:00,34.4,31.8,30.12,ESE,111,6.0,6.0,90,0.00,,,0.06,Wunderground v.1.13,2013-02-08 08:12:00,
2013-02-08 00:17:00,34.4,31.8,30.12,East,96,6.0,6.0,90,0.00,,,0.00,Wunderground v.1.13,2013-02-08 08:17:00,
2013-02-08 00:27:00,34.6,32.0,30.11,ESE,121,7.0,11.0,90,0.00,,,0.00,Wunderground v.1.13,2013-02-08 08:27:00,
2013-02-08 00:32:00,34.7,31.8,30.11,ESE,123,7.0,12.0,89,0.00,,,0.00,Wunderground v.1.13,2013-02-08 08:32:00,
2013-02-08 00:41:00,34.7,31.8,30.11,East,97,7.0,7.0,89,0.00,,,0.00,Wunderground v.1.13,2013-02-08 08:41:00,
2013-02-08 00:47:00,34.6,31.7,30.11,ESE,105,7.0,11.0,89,0.00,,,0.00,Wunderground v.1.13,2013-02-08 08:47:00,
2013-02-08 00:57:00,34.7,31.5,30.11,ESE,118,8.0,8.0,88,0.00,,,0.00,Wunderground v.1.13,2013-02-08 08:57:00,
2013-02-08 01:02:00,34.7,31.5,30.10,ESE,111,8.0,8.0,88,0.00,,,0.00,Wunderground v.1.13,2013-02-08 09:02:00,
2013-02-08 01:07:00,34.9,31.1,30.10,ESE,103,7.0,7.0,86,0.00,,,0.00,Wunderground v.1.13,2013-02-08 09:07:00,
2013-02-08 01:17:00,34.6,30.8,30.10,East,94,6.0,6.0,86,0.00,,,0.00,Wunderground v.1.13,2013-02-08 09:17:00,
2013-02-08 01:27:00,34.4,30.6,30.09,ESE,112,5.0,9.0,86,0.00,,,0.00,Wunderground v.1.13,2013-02-08 09:27:00,
2013-02-08 01:37:00,34.1,30.4,30.09,ESE,103,6.0,9.0,86,0.00,,,0.00,Wunderground v.1.13,2013-02-08 09:37:00,
2013-02-08 01:47:00,34.1,30.1,30.09,East,99,5.0,5.0,85,0.00,,,0.00,Wunderground v.1.13,2013-02-08 09:47:00,
2013-02-08 01:57:00,34.1,30.1,30.08,East,99,4.0,4.0,85,0.00,,,0.00,Wunderground v.1.13,2013-02-08 09:57:00,
2013-02-08 02:02:00,34.1,29.8,30.08,East,99,3.0,14.0,84,0.00,,,0.00,Wunderground v.1.13,2013-02-08 10:02:00,
2013-02-08 02:12:00,33.7,29.7,30.08,East,99,2.0,14.0,85,0.00,,,0.00,Wunderground v.1.13,2013-02-08 10:12:00,
2013-02-08 02:22:00,33.5,29.5,30.08,East,99,2.0,14.0,85,0.00,,,0.00,Wunderground v.1.13,2013-02-08 10:22:00,
2013-02-08 02:32:00,33.5,29.8,30.07,East,99,2.0,14.0,86,0.00,,,0.00,Wunderground v.1.13,2013-02-08 10:32:00,
2013-02-08 02:37:00,33.4,29.4,30.07,East,99,3.0,14.0,85,0.00,,,0.00,Wunderground v.1.13,2013-02-08 10:37:00,
2013-02-08 02:46:00,33.2,29.5,30.07,East,80,5.0,14.0,86,0.00,,,0.00,Wunderground v.1.13,2013-02-08 10:46:00,
2013-02-08 02:52:00,32.9,29.5,30.06,ENE,78,5.0,14.0,87,0.00,,,0.00,Wunderground v.1.13,2013-02-08 10:52:00,
2013-02-08 03:02:00,32.5,29.1,30.06,East,82,4.0,14.0,87,0.00,,,0.00,Wunderground v.1.13,2013-02-08 11:02:00,
2013-02-08 03:12:00,32.4,29.0,30.06,East,83,5.0,14.0,87,0.00,,,0.00,Wunderground v.1.13,2013-02-08 11:12:00,
2013-02-08 03:22:00,32.2,28.8,30.06,ENE,76,5.0,14.0,87,0.00,,,0.00,Wunderground v.1.13,2013-02-08 11:22:00,
2013-02-08 03:27:00,32.2,28.8,30.06,ENE,77,5.0,5.0,87,0.00,,,0.00,Wunderground v.1.13,2013-02-08 11:27:00,
2013-02-08 03:37:00,32.2,28.8,30.06,ENE,78,5.0,5.0,87,0.00,,,0.00,Wunderground v.1.13,2013-02-08 11:37:00,
2013-02-08 03:47:00,32.4,28.7,30.06,ENE,78,3.0,3.0,86,0.00,,,0.00,Wunderground v.1.13,2013-02-08 11:47:00,
2013-02-08 03:57:00,32.4,28.4,30.06,ENE,78,3.0,14.0,85,0.00,,,0.00,Wunderground v.1.13,2013-02-08 11:57:00,
2013-02-08 04:06:00,32.4,28.1,30.06,ENE,78,2.0,14.0,84,0.00,,,0.00,Wunderground v.1.13,2013-02-08 12:06:00,
2013-02-08 04:12:00,32.5,27.9,30.06,ENE,78,2.0,14.0,83,0.00,,,0.00,Wunderground v.1.13,2013-02-08 12:12:00,
2013-02-08 04:22:00,32.8,27.9,30.07,ENE,78,1.0,1.0,82,0.00,,,0.00,Wunderground v.1.13,2013-02-08 12:22:00,
2013-02-08 04:32:00,32.9,27.7,30.07,ENE,78,0.0,14.0,81,0.00,,,0.00,Wunderground v.1.13,2013-02-08 12:32:00,
2013-02-08 04:37:00,32.8,27.9,30.07,ENE,78,0.0,14.0,82,0.00,,,0.00,Wunderground v.1.13,2013-02-08 12:37:00,
2013-02-08 04:47:00,32.4,28.1,30.07,ENE,78,0.0,14.0,84,0.00,,,0.00,Wunderground v.1.13,2013-02-08 12:47:00,
2013-02-08 04:57:00,32.1,27.8,30.07,ENE,78,1.0,14.0,84,0.00,,,0.00,Wunderground v.1.13,2013-02-08 12:57:00,
2013-02-08 05:02:00,32.2,28.2,30.07,ENE,78,1.0,14.0,85,0.00,,,0.00,Wunderground v.1.13,2013-02-08 13:02:00,
2013-02-08 05:12:00,32.1,27.8,30.08,NE,46,2.0,2.0,84,0.00,,,0.00,Wunderground v.1.13,2013-02-08 13:12:00,
2013-02-08 05:17:00,32.1,28.1,30.08,NE,46,2.0,14.0,85,0.00,,,0.00,Wunderground v.1.13,2013-02-08 13:17:00,
2013-02-08 05:27:00,32.1,27.8,30.08,NNE,19,1.0,14.0,84,0.00,,,0.00,Wunderground v.1.13,2013-02-08 13:27:00,
2013-02-08 05:32:00,32.2,27.6,30.08,NNE,19,1.0,1.0,83,0.00,,,0.00,Wunderground v.1.13,2013-02-08 13:32:00,
2013-02-08 05:41:00,32.2,27.9,30.08,NNE,19,0.0,14.0,84,0.00,,,0.00,Wunderground v.1.13,2013-02-08 13:41:00,
2013-02-08 05:47:00,32.4,28.1,30.09,NNE,19,0.0,14.0,84,0.00,,,0.00,Wunderground v.1.13,2013-02-08 13:47:00,
2013-02-08 05:56:00,33.1,27.6,30.08,NNE,19,0.0,14.0,80,0.00,,,0.00,Wunderground v.1.13,2013-02-08 13:56:00,
2013-02-08 06:02:00,33.5,27.7,30.08,NNE,19,0.0,14.0,79,0.00,,,0.00,Wunderground v.1.13,2013-02-08 14:02:00,
2013-02-08 06:07:00,33.4,27.3,30.09,NNE,19,0.0,14.0,78,0.00,,,0.00,Wunderground v.1.13,2013-02-08 14:07:00,
2013-02-08 06:17:00,32.1,27.2,30.09,NE,37,0.0,14.0,82,0.00,,,0.00,Wunderground v.1.13,2013-02-08 14:17:00,
2013-02-08 06:26:00,31.8,27.2,30.09,NNE,24,0.0,14.0,83,0.00,,,0.00,Wunderground v.1.13,2013-02-08 14:26:00,
2013-02-08 06:32:00,31.9,26.7,30.09,NNE,24,1.0,1.0,81,0.00,,,0.00,Wunderground v.1.13,2013-02-08 14:32:00,
2013-02-08 06:41:00,32.2,26.4,30.09,NNE,24,0.0,14.0,79,0.00,,,0.00,Wunderground v.1.13,2013-02-08 14:41:00,
2013-02-08 06:47:00,31.9,26.4,30.09,NNE,24,0.0,14.0,80,0.00,,,0.00,Wunderground v.1.13,2013-02-08 14:47:00,
2013-02-08 06:57:00,31.8,26.3,30.10,NNE,24,0.0,14.0,80,0.00,,,0.00,Wunderground v.1.13,2013-02-08 14:57:00,
2013-02-08 07:06:00,31.3,26.1,30.10,NNE,27,0.0,14.0,81,0.00,,,0.00,Wunderground v.1.13,2013-02-08 15:06:00,
2013-02-08 07:11:00,31.2,26.3,30.10,NNE,27,0.0,14.0,82,0.00,,,0.00,Wunderground v.1.13,2013-02-08 15:11:00,
2013-02-08 07:17:00,31.3,26.7,30.10,NNE,17,1.0,14.0,83,0.00,,,0.00,Wunderground v.1.13,2013-02-08 15:17:00,
2013-02-08 07:22:00,31.5,26.9,30.10,NNE,17,2.0,2.0,83,0.00,,,0.00,Wunderground v.1.13,2013-02-08 15:22:00,
2013-02-08 07:31:00,31.9,26.7,30.10,NNE,17,0.0,14.0,81,0.00,,,0.00,Wunderground v.1.13,2013-02-08 15:31:00,
2013-02-08 07:36:00,32.2,27.3,30.10,NNE,17,0.0,14.0,82,0.00,,,0.00,Wunderground v.1.13,2013-02-08 15:36:00,
2013-02-08 07:42:00,32.7,27.8,30.10,North,360,0.0,14.0,82,0.00,,,0.00,Wunderground v.1.13,2013-02-08 15:42:00,
2013-02-08 07:51:00,33.1,27.9,30.10,North,360,0.0,14.0,81,0.00,,,0.00,Wunderground v.1.13,2013-02-08 15:51:00,
2013-02-08 07:57:00,33.2,28.0,30.11,North,360,0.0,14.0,81,0.00,,,0.00,Wunderground v.1.13,2013-02-08 15:57:00,
2013-02-08 08:02:00,33.7,28.8,30.10,North,360,0.0,14.0,82,0.00,,,0.00,Wunderground v.1.13,2013-02-08 16:02:00,
2013-02-08 08:12:00,33.7,28.2,30.10,North,360,0.0,14.0,80,0.00,,,0.00,Wunderground v.1.13,2013-02-08 16:12:00,
2013-02-08 08:22:00,34.3,28.8,30.11,NE,53,0.0,14.0,80,0.00,,,0.00,Wunderground v.1.13,2013-02-08 16:22:00,
2013-02-08 08:32:00,34.9,29.0,30.10,NNW,345,0.0,14.0,79,0.00,,,0.00,Wunderground v.1.13,2013-02-08 16:32:00,
2013-02-08 08:37:00,35.0,29.1,30.10,NNW,344,0.0,14.0,79,0.00,,,0.00,Wunderground v.1.13,2013-02-08 16:37:00,
2013-02-08 08:47:00,35.5,29.0,30.10,NNW,342,0.0,14.0,77,0.00,,,0.00,Wunderground v.1.13,2013-02-08 16:47:00,
2013-02-08 08:56:00,36.3,28.8,30.10,NNE,31,0.0,14.0,74,0.00,,,0.00,Wunderground v.1.13,2013-02-08 16:56:00,
2013-02-08 09:02:00,36.6,28.8,30.10,NNE,31,0.0,14.0,73,0.00,,,0.00,Wunderground v.1.13,2013-02-08 17:02:00,
2013-02-08 09:11:00,36.5,29.0,30.10,ENE,69,0.0,14.0,74,0.00,,,0.00,Wunderground v.1.13,2013-02-08 17:11:00,
2013-02-08 09:17:00,36.3,29.8,30.11,ENE,69,0.0,14.0,77,0.00,,,0.00,Wunderground v.1.13,2013-02-08 17:17:00,
2013-02-08 09:22:00,35.8,28.6,30.11,ENE,69,0.0,14.0,75,0.00,,,0.00,Wunderground v.1.13,2013-02-08 17:22:00,
2013-02-08 09:31:00,36.5,28.3,30.11,ENE,69,0.0,14.0,72,0.00,,,0.00,Wunderground v.1.13,2013-02-08 17:31:00,
2013-02-08 09:36:00,36.9,28.4,30.10,ENE,69,0.0,14.0,71,0.00,,,0.00,Wunderground v.1.13,2013-02-08 17:36:00,
2013-02-08 09:42:00,37.0,28.5,30.10,West,270,0.0,14.0,71,0.00,,,0.00,Wunderground v.1.13,2013-02-08 17:42:00,
2013-02-08 09:51:00,37.9,29.3,30.10,West,276,1.0,1.0,71,0.00,,,0.00,Wunderground v.1.13,2013-02-08 17:51:00,
2013-02-08 09:57:00,38.2,29.3,30.10,West,271,1.0,1.0,70,0.00,,,0.00,Wunderground v.1.13,2013-02-08 17:57:00,
2013-02-08 10:07:00,38.9,28.9,30.10,NW,306,1.0,14.0,67,0.00,,,0.00,Wunderground v.1.13,2013-02-08 18:07:00,
2013-02-08 10:17:00,39.3,29.6,30.10,West,273,2.0,14.0,68,0.00,,,0.00,Wunderground v.1.13,2013-02-08 18:17:00,
2013-02-08 10:27:00,39.1,29.8,30.10,WSW,253,2.0,14.0,69,0.00,,,0.00,Wunderground v.1.13,2013-02-08 18:27:00,
2013-02-08 10:36:00,40.2,30.8,30.10,WNW,288,2.0,14.0,69,0.00,,,0.00,Wunderground v.1.13,2013-02-08 18:36:00,
2013-02-08 10:42:00,40.8,31.4,30.10,WNW,292,2.0,14.0,69,0.00,,,0.00,Wunderground v.1.13,2013-02-08 18:42:00,
2013-02-08 10:52:00,41.1,32.4,30.10,West,281,2.0,2.0,71,0.00,,,0.00,Wunderground v.1.13,2013-02-08 18:52:00,
2013-02-08 11:01:00,41.5,31.4,30.09,WSW,245,2.0,2.0,67,0.00,,,0.00,Wunderground v.1.13,2013-02-08 19:01:00,
2013-02-08 11:07:00,42.3,31.4,30.09,West,271,2.0,2.0,65,0.00,,,0.00,Wunderground v.1.13,2013-02-08 19:07:00,
2013-02-08 11:17:00,42.8,31.5,30.09,West,263,3.0,14.0,64,0.00,,,0.00,Wunderground v.1.13,2013-02-08 19:17:00,
2013-02-08 11:22:00,42.6,30.9,30.09,West,265,4.0,4.0,63,0.00,,,0.00,Wunderground v.1.13,2013-02-08 19:22:00,
2013-02-08 11:32:00,44.2,32.0,30.08,NNE,32,1.0,14.0,62,0.00,,,0.00,Wunderground v.1.13,2013-02-08 19:32:00,
2013-02-08 11:37:00,45.4,31.9,30.08,West,279,2.0,14.0,59,0.00,,,0.00,Wunderground v.1.13,2013-02-08 19:37:00,
2013-02-08 11:47:00,45.2,31.7,30.07,WNW,289,2.0,14.0,59,0.00,,,0.00,Wunderground v.1.13,2013-02-08 19:47:00,
2013-02-08 11:56:00,46.4,31.1,30.07,NW,313,2.0,14.0,55,0.00,,,0.00,Wunderground v.1.13,2013-02-08 19:56:00,
2013-02-08 12:06:00,47.0,29.8,30.06,NNW,327,2.0,14.0,51,0.00,,,0.00,Wunderground v.1.13,2013-02-08 20:06:00,
2013-02-08 12:12:00,47.3,28.1,30.06,WNW,302,2.0,14.0,47,0.00,,,0.00,Wunderground v.1.13,2013-02-08 20:12:00,
2013-02-08 12:22:00,48.9,30.1,30.05,NW,315,2.0,2.0,48,0.00,,,0.00,Wunderground v.1.13,2013-02-08 20:22:00,
2013-02-08 12:32:00,47.6,28.3,30.05,NNE,17,3.0,3.0,47,0.00,,,0.00,Wunderground v.1.13,2013-02-08 20:32:00,
2013-02-08 12:42:00,45.7,26.1,30.05,West,275,2.0,2.0,46,0.00,,,0.00,Wunderground v.1.13,2013-02-08 20:42:00,
2013-02-08 12:52:00,44.9,26.4,30.05,West,278,2.0,14.0,48,0.00,,,0.00,Wunderground v.1.13,2013-02-08 20:52:00,
2013-02-08 13:01:00,46.0,27.4,30.05,West,264,2.0,14.0,48,0.00,,,0.00,Wunderground v.1.13,2013-02-08 21:01:00,
2013-02-08 13:07:00,46.7,28.0,30.04,NW,307,3.0,4.0,48,0.00,,,0.00,Wunderground v.1.13,2013-02-08 21:07:00,
2013-02-08 13:16:00,45.2,25.1,30.05,West,269,2.0,2.0,45,0.00,,,0.00,Wunderground v.1.13,2013-02-08 21:16:00,
2013-02-08 13:22:00,45.8,26.7,30.04,West,277,2.0,3.0,47,0.00,,,0.00,Wunderground v.1.13,2013-02-08 21:22:00,
2013-02-08 13:32:00,47.4,23.7,30.04,WNW,292,2.0,4.0,39,0.00,,,0.00,Wunderground v.1.13,2013-02-08 21:32:00,
2013-02-08 13:37:00,47.1,24.6,30.04,NW,323,2.0,2.0,41,0.00,,,0.00,Wunderground v.1.13,2013-02-08 21:37:00,
2013-02-08 13:46:00,46.5,24.6,30.04,NW,322,3.0,3.0,42,0.00,,,0.00,Wunderground v.1.13,2013-02-08 21:46:00,
2013-02-08 13:52:00,46.2,24.3,30.04,West,278,3.0,9.0,42,0.00,,,0.00,Wunderground v.1.13,2013-02-08 21:52:00,
2013-02-08 14:02:00,46.5,25.2,30.04,NW,318,3.0,9.0,43,0.00,,,0.00,Wunderground v.1.13,2013-02-08 22:02:00,
2013-02-08 14:12:00,48.0,26.5,30.02,NW,313,3.0,3.0,43,0.00,,,0.00,Wunderground v.1.13,2013-02-08 22:12:00,
2013-02-08 14:17:00,48.3,23.8,30.02,West,281,3.0,9.0,38,0.00,,,0.00,Wunderground v.1.13,2013-02-08 22:17:00,
2013-02-08 14:27:00,48.2,28.4,30.03,North,5,3.0,3.0,46,0.00,,,0.00,Wunderground v.1.13,2013-02-08 22:27:00,
2013-02-08 14:37:00,47.6,25.0,30.03,NW,321,2.0,2.0,41,0.00,,,0.00,Wunderground v.1.13,2013-02-08 22:37:00,
2013-02-08 14:42:00,47.7,25.7,30.03,WSW,255,1.0,1.0,42,0.00,,,0.00,Wunderground v.1.13,2013-02-08 22:42:00,
2013-02-08 14:47:00,47.6,26.2,30.03,NNW,338,1.0,1.0,43,0.00,,,0.00,Wunderground v.1.13,2013-02-08 22:47:00,
2013-02-08 14:57:00,48.0,24.8,30.03,West,270,2.0,9.0,40,0.00,,,0.00,Wunderground v.1.13,2013-02-08 22:57:00,
2013-02-08 15:06:00,47.9,23.5,30.03,NNW,335,2.0,2.0,38,0.00,,,0.00,Wunderground v.1.13,2013-02-08 23:06:00,
2013-02-08 15:11:00,47.3,21.7,30.03,West,278,3.0,3.0,36,0.00,,,0.00,Wunderground v.1.13,2013-02-08 23:11:00,
2013-02-08 15:17:00,46.5,22.8,30.03,NNW,338,2.0,2.0,39,0.00,,,0.00,Wunderground v.1.13,2013-02-08 23:17:00,
2013-02-08 15:27:00,46.7,21.8,30.03,NW,304,2.0,9.0,37,0.00,,,0.00,Wunderground v.1.13,2013-02-08 23:27:00,
2013-02-08 15:37:00,46.8,20.6,30.04,NNE,12,1.0,9.0,35,0.00,,,0.00,Wunderground v.1.13,2013-02-08 23:37:00,
2013-02-08 15:47:00,47.1,21.5,30.04,NNE,33,3.0,9.0,36,0.00,,,0.00,Wunderground v.1.13,2013-02-08 23:47:00,
2013-02-08 15:52:00,47.1,20.8,30.04,NE,38,4.0,4.0,35,0.00,,,0.00,Wunderground v.1.13,2013-02-08 23:52:00,
2013-02-08 16:02:00,47.1,19.4,30.04,NNE,19,4.0,9.0,33,0.00,,,0.00,Wunderground v.1.13,2013-02-09 00:02:00,
2013-02-08 16:11:00,46.7,19.8,30.04,NNW,346,5.0,11.0,34,0.00,,,0.00,Wunderground v.1.13,2013-02-09 00:11:00,
2013-02-08 16:17:00,46.5,21.6,30.04,NW,315,4.0,4.0,37,0.00,,,0.00,Wunderground v.1.13,2013-02-09 00:17:00,
2013-02-08 16:27:00,46.4,22.1,30.04,NE,50,3.0,3.0,38,0.00,,,0.00,Wunderground v.1.13,2013-02-09 00:27:00,
2013-02-08 16:32:00,46.0,21.1,30.04,NE,37,3.0,9.0,37,0.00,,,0.00,Wunderground v.1.13,2013-02-09 00:32:00,
2013-02-08 16:42:00,45.5,19.4,30.05,NNE,21,6.0,9.0,35,0.00,,,0.00,Wunderground v.1.13,2013-02-09 00:42:00,
2013-02-08 16:52:00,44.9,18.9,30.06,NNE,31,4.0,9.0,35,0.00,,,0.00,Wunderground v.1.13,2013-02-09 00:52:00,
2013-02-08 17:02:00,44.5,21.0,30.06,NE,40,4.0,4.0,39,0.00,,,0.00,Wunderground v.1.13,2013-02-09 01:02:00,
2013-02-08 17:12:00,43.9,19.9,30.06,NNW,336,2.0,9.0,38,0.00,,,0.00,Wunderground v.1.13,2013-02-09 01:12:00,
2013-02-08 17:22:00,43.5,21.3,30.06,North,360,4.0,9.0,41,0.00,,,0.00,Wunderground v.1.13,2013-02-09 01:22:00,
2013-02-08 17:32:00,43.2,20.5,30.07,North,9,4.0,4.0,40,0.00,,,0.00,Wunderground v.1.13,2013-02-09 01:32:00,
2013-02-08 17:42:00,42.9,20.8,30.07,NNW,344,4.0,9.0,41,0.00,,,0.00,Wunderground v.1.13,2013-02-09 01:42:00,
2013-02-08 17:47:00,42.6,21.1,30.07,North,355,4.0,4.0,42,0.00,,,0.00,Wunderground v.1.13,2013-02-09 01:47:00,
2013-02-08 17:57:00,42.5,19.8,30.07,NNE,32,4.0,9.0,40,0.00,,,0.00,Wunderground v.1.13,2013-02-09 01:57:00,
2013-02-08 18:06:00,42.3,20.2,30.08,NNW,333,6.0,6.0,41,0.00,,,0.00,Wunderground v.1.13,2013-02-09 02:06:00,
2013-02-08 18:12:00,42.3,19.7,30.07,North,355,6.0,9.0,40,0.00,,,0.00,Wunderground v.1.13,2013-02-09 02:12:00,
2013-02-08 18:22:00,42.1,20.1,30.08,North,5,5.0,5.0,41,0.00,,,0.00,Wunderground v.1.13,2013-02-09 02:22:00,
2013-02-08 18:27:00,41.9,20.4,30.08,NNE,12,5.0,9.0,42,0.00,,,0.00,Wunderground v.1.13,2013-02-09 02:27:00,
2013-02-08 18:36:00,41.8,20.9,30.08,NNE,24,5.0,5.0,43,0.00,,,0.00,Wunderground v.1.13,2013-02-09 02:36:00,
2013-02-08 18:42:00,41.6,20.7,30.09,NE,48,5.0,5.0,43,0.00,,,0.00,Wunderground v.1.13,2013-02-09 02:42:00,
2013-02-08 18:52:00,41.2,20.4,30.09,NNE,14,5.0,9.0,43,0.00,,,0.00,Wunderground v.1.13,2013-02-09 02:52:00,
2013-02-08 19:02:00,41.1,20.3,30.09,North,355,6.0,9.0,43,0.00,,,0.00,Wunderground v.1.13,2013-02-09 03:02:00,
2013-02-08 19:11:00,40.9,20.1,30.09,NW,316,6.0,9.0,43,0.00,,,0.00,Wunderground v.1.13,2013-02-09 03:11:00,
2013-02-08 19:17:00,40.9,19.5,30.09,NNE,30,6.0,6.0,42,0.00,,,0.00,Wunderground v.1.13,2013-02-09 03:17:00,
2013-02-08 19:27:00,40.8,19.5,30.09,NE,34,5.0,9.0,42,0.00,,,0.00,Wunderground v.1.13,2013-02-09 03:27:00,
2013-02-08 19:32:00,40.6,19.8,30.09,NNE,30,5.0,5.0,43,0.00,,,0.00,Wunderground v.1.13,2013-02-09 03:32:00,
2013-02-08 19:37:00,40.5,19.2,30.09,ENE,73,5.0,5.0,42,0.00,,,0.00,Wunderground v.1.13,2013-02-09 03:37:00,
2013-02-08 19:47:00,40.2,20.0,30.09,NNE,16,4.0,9.0,44,0.00,,,0.00,Wunderground v.1.13,2013-02-09 03:47:00,
2013-02-08 19:57:00,40.2,20.0,30.09,NNE,16,5.0,9.0,44,0.00,,,0.00,Wunderground v.1.13,2013-02-09 03:57:00,
2013-02-08 20:07:00,40.1,19.9,30.09,North,5,5.0,5.0,44,0.00,,,0.00,Wunderground v.1.13,2013-02-09 04:07:00,
2013-02-08 20:17:00,39.6,19.5,30.09,NNE,23,4.0,9.0,44,0.00,,,0.00,Wunderground v.1.13,2013-02-09 04:17:00,
2013-02-08 20:27:00,39.9,18.6,30.09,NE,34,5.0,9.0,42,0.00,,,0.00,Wunderground v.1.13,2013-02-09 04:27:00,
2013-02-08 20:32:00,39.8,18.5,30.09,NE,36,6.0,6.0,42,0.00,,,0.00,Wunderground v.1.13,2013-02-09 04:32:00,
2013-02-08 20:42:00,39.8,18.5,30.09,North,355,6.0,6.0,42,0.00,,,0.00,Wunderground v.1.13,2013-02-09 04:42:00,
2013-02-08 20:52:00,39.3,19.2,30.09,North,5,4.0,4.0,44,0.00,,,0.00,Wunderground v.1.13,2013-02-09 04:52:00,
2013-02-08 21:01:00,38.8,19.2,30.09,NNE,22,4.0,9.0,45,0.00,,,0.00,Wunderground v.1.13,2013-02-09 05:01:00,
2013-02-08 21:07:00,38.6,19.1,30.09,North,355,4.0,4.0,45,0.00,,,0.00,Wunderground v.1.13,2013-02-09 05:07:00,
2013-02-08 21:11:00,38.3,18.8,30.10,NNE,13,4.0,4.0,45,0.00,,,0.00,Wunderground v.1.13,2013-02-09 05:11:00,
2013-02-08 21:16:00,38.3,18.3,30.09,North,9,4.0,4.0,44,0.00,,,0.00,Wunderground v.1.13,2013-02-09 05:16:00,
2013-02-08 21:22:00,38.5,19.0,30.09,North,5,5.0,5.0,45,0.00,,,0.00,Wunderground v.1.13,2013-02-09 05:22:00,
2013-02-08 21:31:00,38.0,18.5,30.09,NNW,327,4.0,9.0,45,0.00,,,0.00,Wunderground v.1.13,2013-02-09 05:31:00,
2013-02-08 21:37:00,38.2,18.2,30.09,North,350,4.0,4.0,44,0.00,,,0.00,Wunderground v.1.13,2013-02-09 05:37:00,
2013-02-08 21:47:00,38.3,18.3,30.09,NNE,14,5.0,5.0,44,0.00,,,0.00,Wunderground v.1.13,2013-02-09 05:47:00,
2013-02-08 21:56:00,38.5,18.4,30.08,North,5,5.0,5.0,44,0.00,,,0.00,Wunderground v.1.13,2013-02-09 05:56:00,
2013-02-08 22:02:00,38.0,18.5,30.08,North,5,4.0,9.0,45,0.00,,,0.00,Wunderground v.1.13,2013-02-09 06:02:00,
2013-02-08 22:12:00,37.8,18.3,30.09,NNE,15,4.0,4.0,45,0.00,,,0.00,Wunderground v.1.13,2013-02-09 06:12:00,
2013-02-08 22:22:00,38.2,18.2,30.08,NNE,15,5.0,9.0,44,0.00,,,0.00,Wunderground v.1.13,2013-02-09 06:22:00,
2013-02-08 22:31:00,38.0,18.5,30.08,NE,44,6.0,9.0,45,0.00,,,0.00,Wunderground v.1.13,2013-02-09 06:31:00,
2013-02-08 22:37:00,37.9,18.4,30.08,North,5,5.0,9.0,45,0.00,,,0.00,Wunderground v.1.13,2013-02-09 06:37:00,
2013-02-08 22:47:00,37.8,18.8,30.08,NE,42,5.0,5.0,46,0.00,,,0.00,Wunderground v.1.13,2013-02-09 06:47:00,
2013-02-08 22:52:00,37.8,18.3,30.08,NE,34,5.0,9.0,45,0.00,,,0.00,Wunderground v.1.13,2013-02-09 06:52:00,
2013-02-08 23:01:00,37.9,17.9,30.07,NNE,24,5.0,5.0,44,0.00,,,0.00,Wunderground v.1.13,2013-02-09 07:01:00,
2013-02-08 23:07:00,38.0,18.0,30.07,NNE,15,5.0,9.0,44,0.00,,,0.00,Wunderground v.1.13,2013-02-09 07:07:00,
2013-02-08 23:16:00,38.0,18.0,30.07,NNW,346,4.0,9.0,44,0.00,,,0.00,Wunderground v.1.13,2013-02-09 07:16:00,
2013-02-08 23:22:00,37.9,18.4,30.07,NNW,335,4.0,4.0,45,0.00,,,0.00,Wunderground v.1.13,2013-02-09 07:22:00,
2013-02-08 23:32:00,37.8,18.3,30.07,NE,37,4.0,4.0,45,0.00,,,0.00,Wunderground v.1.13,2013-02-09 07:32:00,
2013-02-08 23:37:00,37.6,18.2,30.07,NNW,347,4.0,9.0,45,0.00,,,0.00,Wunderground v.1.13,2013-02-09 07:37:00,
2013-02-08 23:47:00,37.6,18.7,30.07,NE,44,4.0,9.0,46,0.00,,,0.00,Wunderground v.1.13,2013-02-09 07:47:00,
2013-02-08 23:56:00,37.8,17.8,30.07,NNE,23,4.0,9.0,44,0.00,,,0.00,Wunderground v.1.13,2013-02-09 07:56:00,